This demonstration page uses our WeatherBlox Daily Observations layout. Learn more.

Left ArrowRight Arrow

Hourly Observations for May 13, 2018

Temp ( °F °C ) Dew Point ( °F °C ) Humidity (%) Winds ( mph kmh ) Pressure ( in mb ) Visibility ( mi km ) Precip ( " mm )
12:53 am 00:53 Partly Cloudy 65 18.3 48 8.9 54 54 W 3 6 29.83 1010 10 16 0.00 0.00
1:53 am 01:53 Cloudy 65 18.3 48 8.9 54 54 WNW 7 11 29.85 1011 10 16 0.00 0.00
2:53 am 02:53 Clear 63 17.2 48 8.9 58 58 Calm 29.85 1011 10 16 0.00 0.00
3:53 am 03:53 Clear 60 15.6 49 9.4 67 67 NE 3 6 29.87 1012 10 16 0.00 0.00
4:53 am 04:53 Clear 57 13.9 48 8.9 72 72 Calm 29.87 1012 10 16 0.00 0.00
5:53 am 05:53 Clear 56 13.3 49 9.4 77 77 Calm 29.89 1012 10 16 0.00 0.00
6:53 am 06:53 Sunny 57 13.9 50 10 78 78 Calm 29.91 1013 10 16 0.00 0.00
7:53 am 07:53 Sunny 62 16.7 51 10.6 67 67 Calm 29.92 1013 10 16 0.00 0.00
8:53 am 08:53 Sunny 66 18.9 49 9.4 54 54 Calm 29.93 1014 10 16 0.00 0.00
9:53 am 09:53 Sunny 68 20 50 10 53 53 VRB 3 6 29.93 1014 10 16 0.00 0.00
10:53 am 10:53 Sunny 72 22.2 50 10 46 46 Calm 29.92 1013 10 16 0.00 0.00
11:53 am 11:53 Sunny 74 23.3 49 9.4 41 41 S 5 7 29.91 1013 10 16 0.00 0.00
12:53 pm 12:53 Sunny 78 25.6 50 10 37 37 S 7 11 29.89 1012 10 16 0.00 0.00
1:53 pm 13:53 Sunny 81 27.2 49 9.4 33 33 SE 9 15 29.87 1011 10 16 0.00 0.00
2:53 pm 14:53 Sunny 82 27.8 47 8.3 29 29 S 10 17 29.85 1011 10 16 0.00 0.00
3:53 pm 15:53 Sunny 83 28.3 47 8.3 28 28 S 10 17 29.83 1010 10 16 0.00 0.00
4:53 pm 16:53 Sunny 82 27.8 47 8.3 29 29 SSE 14 22 29.82 1010 10 16 0.00 0.00
5:53 pm 17:53 Sunny 81 27.2 48 8.9 32 32 SSE 13 20 29.82 1010 10 16 0.00 0.00
6:53 pm 18:53 Sunny 79 26.1 48 8.9 34 34 S 9 15 29.82 1010 10 16 0.00 0.00
7:53 pm 19:53 Sunny 75 23.9 52 11.1 45 45 SSE 7 11 29.82 1010 10 16 0.00 0.00
8:53 pm 20:53 Clear 70 21.1 53 11.7 55 55 SE 5 7 29.84 1010 10 16 0.00 0.00
9:53 pm 21:53 Clear 69 20.6 53 11.7 57 57 Calm 29.86 1011 10 16 0.00 0.00
10:53 pm 22:53 Clear 64 17.8 54 12.2 70 70 NNE 5 7 29.88 1012 10 16 0.00 0.00
11:53 pm 23:53 Clear 66 18.9 53 11.7 63 63 Calm 29.89 1012 10 16 0.00 0.00

Powered by AerisWeather